sat.trackr.live / text

‹ back to catalog

STARLINK-37509

NORAD 69444 · 2026-127B

PAYLOAD ACTIVE UNKNOWN

§ Identity

Operator
Country
US
Launch date
2026-06-08
Launch site
AFETR
Launch vehicle
Mass (kg)
RCS (m²)

Purposes: comms

External: N2YO · Heavens-Above · Gunter

§ Orbital elements

Epoch: 2026-09-20T02:52:22.665792Z

Period
93.85 min
Inclination
53.1567°
Eccentricity
0.0000887
Mean motion
15.34416847 rev/d
Perigee alt
462.0 km
Apogee alt
463.3 km
Semi-major
6,840.8 km
B*
3.9447e-4
RAAN
167.5096°
Arg perigee
123.9996°
Mean anomaly
236.1091°
Rev number
1,613

§ Raw data

STARLINK-375091 69444U 26127B   26263.11970678  .00012982  00000+0  39447-3 0  99942 69444  53.1567 167.5096 0000887 123.9996 236.1091 15.34416847 16138

JSON: /api/v1/satellites/69444 · /tle

For live sub-satellite position, see the globe view (requires WebGL).

§ Visibility from observer

Set your observer location to see the next 7 days of passes ≥ 10°. The values pass through the URL so the page stays shareable.

No JS? Fill the form by hand. The geolocation button needs JavaScript.